Find Kuiper-00085

NORAD ID: 64831 Int'l Des: 2025-151 Owner: KUIP Country: US Constellation: kuiper operational
LEOCIRCULAR

Live-Position

3D-Globus wird geladen...

Über Kuiper-00085

Beschreibung wird geladen...

Nächste Überflüge

Passes for default location (London). Set your location on the main map for personalized predictions.

Höhenverlauf

Loading altitude history...

Zweizeiliger Elementsatz

1 64831U 25151R 26119.85987962 -.00000978 00000-0 -99321-4 0 9993
2 64831 51.9028 61.8653 0001259 95.8770 264.2336 14.79929040 43054
Epoch: 29. Apr. 2026 • Age: 6 hours

Aktueller Status

Höhe 636.4 km
Geschwindigkeit 7.54 km/s
Subsatellitenpunkt -23.32°S, 5.73°E
Startdatum 16. Juli 2025
Alter 0.7 years
Typ internet

Technische Details

Klassifizierung Payload
Masse 490.00 kg
Trockenmasse 490.00 kg
Gesamtmasse 490.00 kg
Länge 1.80 m
Durchmesser 0.70 m
Spannweite 5.00 m
Form Box + 2 pan
Hersteller KUIP
Bus-Typ Kuiper
Phasenstatus In Orbit
Besitzer/Staat KUIP/US

Most Searched